DW9408 Weather Reports


Display with metric or nautical units.
time (UTC)temp
F
wind
direction
speed
MPH
gust
MPH
rain 1hr
in
rain 24hr
in
rain mn
in
humidity
%
barometer
mb
20260503213857 69 204 1.0 7.0 0.00 0.00 0.00 41 1015.0
20260503213356 69 211 2.0 8.0 0.00 0.00 0.00 40 1015.1
20260503212857 70 220 2.0 8.0 0.00 0.00 0.00 39 1015.1
20260503212356 70 133 2.0 7.0 0.00 0.00 0.00 40 1015.0
20260503211855 69 215 1.0 7.0 0.00 0.00 0.00 41 1015.1
20260503211348 69 215 1.0 7.0 0.00 0.00 0.00 43 1015.2
20260503210843 69 173 2.0 9.0 0.00 0.00 0.00 41 1015.2
20260503210608 69 124 2.0 9.0 0.00 0.00 0.00 43 1015.2
20260503205831 69 127 3.0 10.0 0.00 0.00 0.00 42 1015.2
20260503205324 69 257 2.0 10.0 0.00 0.00 0.00 41 1015.3
20260503204819 69 244 3.0 10.0 0.00 0.00 0.00 40 1015.4
20260503204312 69 186 2.0 10.0 0.00 0.00 0.00 42 1015.5
20260503204038 69 232 1.0 8.0 0.00 0.00 0.00 44 1015.5
20260503203301 69 304 1.0 8.0 0.00 0.00 0.00 42 1015.7
20260503202754 68 154 2.0 12.0 0.00 0.00 0.00 43 1015.7
20260503202249 68 242 2.0 12.0 0.00 0.00 0.00 44 1015.8
20260503201744 68 157 1.0 7.0 0.00 0.00 0.00 42 1016.0
20260503201236 68 178 3.0 8.0 0.00 0.00 0.00 41 1016.1
20260503200731 68 186 3.0 10.0 0.00 0.00 0.00 45 1016.3
20260503200224 68 194 1.0 10.0 0.00 0.00 0.00 41 1016.3
20260503195718 69 223 1.0 4.0 0.00 0.00 0.00 40 1016.3
20260503195215 68 267 1.0 9.0 0.00 0.00 0.00 45 1016.4
20260503194708 68 199 2.0 9.0 0.00 0.00 0.00 44 1016.6
20260503194200 68 250 2.0 10.0 0.00 0.00 0.00 44 1016.6
20260503193653 68 182 1.0 10.0 0.00 0.00 0.00 42 1016.7
20260503193148 68 194 1.0 5.0 0.00 0.00 0.00 41 1016.7
20260503192641 68 163 1.0 4.0 0.00 0.00 0.00 43 1016.8
20260503192405 68 211 2.0 11.0 0.00 0.00 0.00 45 1016.8
20260503191629 67 279 2.0 11.0 0.00 0.00 0.00 46 1017.0
20260503191122 67 227 2.0 10.0 0.00 0.00 0.00 44 1017.0
20260503190847 67 197 1.0 7.0 0.00 0.00 0.00 41 1017.1
20260503190112 67 262 0.0 4.0 0.00 0.00 0.00 42 1017.2
20260503185605 67 283 0.0 6.0 0.00 0.00 0.00 42 1017.2
20260503185058 67 227 0.0 6.0 0.00 0.00 0.00 42 1017.3
20260503184554 66 247 0.0 2.0 0.00 0.00 0.00 44 1017.3
20260503184047 66 281 0.0 2.0 0.00 0.00 0.00 46 1017.3
20260503183814 66 259 0.0 7.0 0.00 0.00 0.00 44 1017.4
20260503183035 66 263 1.0 7.0 0.00 0.00 0.00 42 1017.5
20260503182529 66 271 1.0 8.0 0.00 0.00 0.00 44 1017.6
20260503182023 65 261 1.0 9.0 0.00 0.00 0.00 44 1017.6
20260503181747 65 257 1.0 9.0 0.00 0.00 0.00 42 1017.7
20260503181011 65 243 2.0 7.0 0.00 0.00 0.00 42 1017.7
20260503180504 65 211 2.0 10.0 0.00 0.00 0.00 42 1017.8
20260503175959 66 194 1.0 10.0 0.00 0.00 0.00 43 1017.8
20260503175452 65 228 1.0 10.0 0.00 0.00 0.00 44 1017.8
20260503174947 65 160 1.0 6.0 0.00 0.00 0.00 44 1017.9
20260503174440 64 198 1.0 6.0 0.00 0.00 0.00 44 1018.0
20260503174206 64 211 1.0 9.0 0.00 0.00 0.00 47 1018.0
20260503173430 64 222 1.0 9.0 0.00 0.00 0.00 44 1018.1
20260503172922 64 208 1.0 8.0 0.00 0.00 0.00 45 1018.2
20260503172417 64 254 0.0 8.0 0.00 0.00 0.00 46 1018.4
20260503171911 64 318 1.0 8.0 0.00 0.00 0.00 45 1018.4
20260503171405 64 219 0.0 7.0 0.00 0.00 0.00 47 1018.5
20260503170859 64 266 0.0 2.0 0.00 0.00 0.00 48 1018.6
20260503170353 63 186 1.0 12.0 0.00 0.00 0.00 45 1018.7
20260503150312 58 19 2.0 10.0 0.00 0.00 0.00 52 1019.9
20260503140311 57 348 5.0 14.0 0.00 0.00 0.00 55 1019.8
20260503131230 52 114 0.0 1.0 0.00 0.00 0.00 76 1019.8
20260503130957 51 109 0.0 2.0 0.00 0.00 0.00 81 1019.6
20260503130218 50 112 0.0 2.0 0.00 0.00 0.00 80 1019.6
20260503120106 37 336 0.0 0.0 0.00 0.00 0.00 99 1019.5
20260503110500 34 336 0.0 0.0 0.00 0.00 0.00 98 1019.2
20260503090306 35 336 0.0 0.0 0.00 0.00 0.00 97 1017.7
20260503081256 36 336 0.0 0.0 0.00 0.00 0.00 96 1017.1
20260503081033 36 336 0.0 0.0 0.00 0.00 0.00 96 1017.0
20260503080530 36 336 0.0 0.0 0.00 0.00 0.00 96 1017.0
20260503072754 37 336 0.0 0.0 0.00 0.00 0.00 96 1016.8
20260503072253 37 336 0.0 0.0 0.00 0.00 0.00 96 1016.7
20260503071801 37 336 0.0 0.0 0.00 0.00 0.00 96 1016.6
20260503071253 37 336 0.0 0.0 0.00 0.00 0.00 96 1016.6
20260503070754 37 336 0.0 0.0 0.00 0.00 0.00 96 1016.4
20260503070253 37 336 0.0 3.0 0.00 0.00 0.00 96 1016.4
20260503054930 38 336 0.0 0.0 0.00 0.00 0.00 94 1016.2
20260503053647 38 336 0.0 0.0 0.00 0.00 0.00 93 1016.2
20260503053141 38 336 0.0 0.0 0.00 0.00 0.00 93 1016.2
20260503052635 39 336 0.0 0.0 0.00 0.00 0.00 93 1016.3
20260503052129 39 336 0.0 0.0 0.00 0.00 0.00 93 1016.3
20260503051622 39 336 0.0 0.0 0.00 0.00 0.00 93 1016.3
20260503051348 39 336 0.0 0.0 0.00 0.00 0.00 93 1016.3
20260503050610 39 336 0.0 0.0 0.00 0.00 0.00 93 1016.3
20260503050105 40 336 0.0 0.0 0.00 0.00 0.00 93 1016.3
20260503045559 40 336 0.0 0.0 0.00 0.00 0.00 93 1016.2
20260503045053 40 336 0.0 0.0 0.00 0.00 0.00 92 1016.1
20260503044312 40 336 0.0 0.0 0.00 0.00 0.00 92 1016.0
20260503043805 40 336 0.0 0.0 0.00 0.00 0.00 92 1016.0
20260503043029 40 336 0.0 0.0 0.00 0.00 0.00 91 1016.0
20260503042753 40 336 0.0 0.0 0.00 0.00 0.00 90 1016.0
20260503042248 41 336 0.0 0.0 0.00 0.00 0.00 90 1015.8
20260503041511 41 336 0.0 0.0 0.00 0.00 0.00 90 1015.8
20260503041005 41 336 0.0 0.0 0.00 0.00 0.00 90 1015.7
20260503040730 41 336 0.0 0.0 0.00 0.00 0.00 90 1015.6
20260503035952 41 336 0.0 0.0 0.00 0.00 0.00 89 1015.5
20260503035445 42 336 0.0 0.0 0.00 0.00 0.00 89 1015.5
20260503034940 42 336 0.0 0.0 0.00 0.00 0.00 88 1015.5
20260503034434 42 336 0.0 0.0 0.00 0.00 0.00 87 1015.4
20260503033928 42 336 0.0 0.0 0.00 0.00 0.00 86 1015.4
20260503033422 43 336 0.0 0.0 0.00 0.00 0.00 86 1015.3
20260503032916 43 336 0.0 0.0 0.00 0.00 0.00 86 1015.2
20260503032409 43 336 0.0 0.0 0.00 0.00 0.00 84 1015.2
20260503031904 44 336 0.0 0.0 0.00 0.00 0.00 84 1015.1
20260503031358 44 336 0.0 0.0 0.00 0.00 0.00 83 1015.1
20260503030852 44 336 0.0 0.0 0.00 0.00 0.00 84 1015.0
20260503030346 44 336 0.0 0.0 0.00 0.00 0.00 83 1015.0
20260503025840 44 336 0.0 0.0 0.00 0.00 0.00 82 1015.0
20260503025334 45 336 0.0 0.0 0.00 0.00 0.00 82 1014.8
20260503024827 45 336 0.0 0.0 0.00 0.00 0.00 82 1014.8
20260503024322 45 336 0.0 0.0 0.00 0.00 0.00 81 1014.8
20260503023816 45 336 0.0 0.0 0.00 0.00 0.00 81 1014.7
20260503023310 46 336 0.0 0.0 0.00 0.00 0.00 80 1014.7
20260503022804 46 336 0.0 0.0 0.00 0.00 0.00 79 1014.7
20260503022258 47 336 0.0 0.0 0.00 0.00 0.00 79 1014.6
20260503022023 47 336 0.0 0.0 0.00 0.00 0.00 77 1014.7
20260503021016 49 336 0.0 0.0 0.00 0.00 0.00 73 1014.5
20260503020243 49 336 0.0 0.0 0.00 0.00 0.00 71 1014.5
20260503015743 49 336 0.0 0.0 0.00 0.00 0.00 70 1014.4
20260503015244 51 336 0.0 0.0 0.00 0.00 0.00 71 1014.4
20260503014741 52 336 0.0 0.0 0.00 0.00 0.00 66 1014.1
20260503014510 52 336 0.0 0.0 0.00 0.00 0.00 61 1014.0
20260503014009 53 336 0.0 0.0 0.00 0.00 0.00 64 1013.9
20260503013241 54 336 0.0 0.0 0.00 0.00 0.00 66 1013.8
20260503012736 54 336 0.0 0.0 0.00 0.00 0.00 63 1013.8
20260503012236 55 336 0.0 0.0 0.00 0.00 0.00 61 1013.6
20260503012005 56 336 0.0 1.0 0.00 0.00 0.00 58 1013.6
20260503011232 57 336 0.0 1.0 0.00 0.00 0.00 54 1013.5
20260503010730 58 336 0.0 0.0 0.00 0.00 0.00 47 1013.5
20260503010226 58 336 0.0 2.0 0.00 0.00 0.00 45 1013.4
20260503005726 59 336 0.0 2.0 0.00 0.00 0.00 43 1013.3
20260503005224 59 336 0.0 1.0 0.00 0.00 0.00 43 1013.1
20260503004724 59 336 0.0 1.0 0.00 0.00 0.00 43 1013.1
20260503004224 59 336 0.0 0.0 0.00 0.00 0.00 44 1012.9
20260503003721 60 336 0.0 3.0 0.00 0.00 0.00 43 1012.8
20260503003220 60 336 0.0 3.0 0.00 0.00 0.00 42 1012.8
20260503002946 60 320 0.0 3.0 0.00 0.00 0.00 42 1012.8
20260503002215 60 308 0.0 4.0 0.00 0.00 0.00 43 1012.6
20260503001715 60 275 0.0 4.0 0.00 0.00 0.00 42 1012.6
20260503001445 60 254 0.0 1.0 0.00 0.00 0.00 42 1012.5
20260503000716 61 246 0.0 1.0 0.00 0.00 0.00 41 1012.4
20260503000215 61 261 1.0 9.0 0.00 0.00 0.00 43 1012.3
20260502235714 61 9 1.0 9.0 0.00 0.00 0.00 41 1012.3
20260502235214 62 268 1.0 7.0 0.00 0.00 0.00 41 1012.1
20260502234715 62 282 1.0 9.0 0.00 0.00 0.00 40 1011.9
20260502234216 63 338 2.0 10.0 0.00 0.00 0.00 40 1011.9
20260502233716 63 335 2.0 10.0 0.00 0.00 0.00 39 1011.7
20260502233214 63 344 1.0 9.0 0.00 0.00 0.00 40 1011.6
20260502232715 64 302 2.0 9.0 0.00 0.00 0.00 40 1011.4
20260502232215 64 13 3.0 13.0 0.00 0.00 0.00 41 1011.5
20260502231714 64 308 5.0 15.0 0.00 0.00 0.00 40 1011.4
20260502231215 64 16 5.0 15.0 0.00 0.00 0.00 39 1011.4
20260502230715 64 19 3.0 12.0 0.00 0.00 0.00 39 1011.3
20260502230218 65 345 3.0 11.0 0.00 0.00 0.00 40 1011.2
20260502225711 65 298 4.0 12.0 0.00 0.00 0.00 40 1011.2
20260502225205 65 300 4.0 13.0 0.00 0.00 0.00 39 1011.1
20260502224659 65 22 2.0 13.0 0.00 0.00 0.00 39 1011.2
20260502224154 65 324 2.0 7.0 0.00 0.00 0.00 44 1011.1
20260502223648 64 321 2.0 7.0 0.00 0.00 0.00 43 1011.1
20260502223142 64 86 1.0 6.0 0.00 0.00 0.00 47 1011.1
20260502222635 64 331 1.0 6.0 0.00 0.00 0.00 46 1011.1
20260502222130 64 351 1.0 6.0 0.00 0.00 0.00 49 1011.0
20260502221855 64 284 1.0 6.0 0.00 0.00 0.00 48 1010.9
20260502221117 65 281 1.0 6.0 0.00 0.00 0.00 48 1010.8
20260502220843 65 350 1.0 4.0 0.00 0.00 0.00 45 1010.8
20260502220105 64 275 1.0 4.0 0.00 0.00 0.00 56 1010.6
20260502215600 65 329 1.0 4.0 0.00 0.00 0.00 49 1010.5
20260502215053 65 328 0.0 4.0 0.00 0.00 0.00 49 1010.5
20260502214548 64 290 0.0 0.0 0.00 0.00 0.00 56 1010.5
20260502214041 64 290 0.0 0.0 0.00 0.00 0.00 58 1010.4